Location: Caltech
(34.1382°N, 118.1253°W)
Time: 04:53:22
(UTC-07:00)

Aureole 3 Rocket - Visible Passes

Search period start: 23 May 2015 00:00
Search period end: 02 June 2015 00:00
Orbit: 400 x 1750 km, 82.5° (Epoch: 23 May)

Date Brightness Start Highest point End Pass type
(mag) Time Alt. Az. Time Alt. Az. Time Alt. Az.
23 May 6.0 20:34:54 10° NNE 20:42:56 28° ENE 20:49:22 13° ESE visible
23 May 5.2 22:21:33 10° NNW 22:31:37 67° W 22:36:12 31° SSW visible
24 May 7.1 00:14:06 10° NW 00:17:21 12° WNW 00:19:35 10° W visible
24 May 5.0 21:29:35 10° N 21:39:39 67° E 21:44:52 26° SSE visible
24 May 6.5 23:18:36 10° NNW 23:26:22 26° W 23:31:41 14° SW visible
25 May 5.7 20:38:15 10° N 20:47:00 35° ENE 20:53:32 14° SE visible
25 May 5.5 22:25:33 10° NNW 22:35:05 51° W 22:40:21 22° SSW visible
26 May 4.8 21:33:20 10° N 21:43:21 85° E 21:49:01 22° S visible
26 May 6.7 23:23:20 10° NW 23:29:34 19° WNW 23:34:34 10° WSW visible
27 May 5.3 20:41:45 10° N 20:50:56 44° ENE 20:57:41 13° SE visible
27 May 5.9 22:29:42 10° NNW 22:38:26 38° W 22:44:30 14° SW visible
28 May 4.9 21:37:11 10° N 21:46:54 76° W 21:53:10 16° S visible
28 May 7.0 23:28:54 10° NW 23:32:41 13° WNW 23:35:30 10° W visible
29 May 4.9 20:45:21 10° N 20:54:46 56° ENE 21:01:49 11° SSE visible
29 May 6.3 22:34:01 10° NNW 22:41:41 28° W 22:47:42 10° SW visible
30 May 5.2 21:41:09 10° NNW 21:50:21 57° W 21:57:15 10° SSW visible
31 May 4.7 20:49:03 10° N 20:58:27 73° E 21:05:25 10° SSE visible
31 May 6.6 22:38:40 10° NW 22:44:50 20° WNW 22:49:41 10° WSW visible
01 Jun 5.7 21:45:14 10° NNW 21:53:39 42° W 21:59:59 10° SSW visible
